| time (UTC) | temp F | wind direction | speed MPH | gust MPH | rain 1hr in | rain 24hr in | rain mn in | humidity % | barometer mb |
| 20260507064553 | 46 | 232 | 6.0 | 11.0 | 0.00 | 0.00 | 0.00 | 91 | 1010.0 |
| 20260507063054 | 46 | 272 | 4.0 | 12.0 | 0.00 | 0.00 | 0.00 | 91 | 1010.1 |
| 20260507061547 | 46 | 243 | 7.0 | 12.0 | 0.00 | 0.00 | 0.00 | 92 | 1010.8 |
| 20260507060047 | 45 | 265 | 6.0 | 13.0 | 0.00 | 0.00 | 0.00 | 92 | 1010.7 |
| 20260507054544 | 45 | 232 | 5.0 | 11.0 | 0.00 | 0.00 | 0.00 | 92 | 1010.9 |
| 20260507053039 | 45 | 250 | 4.0 | 10.0 | 0.00 | 0.00 | 0.00 | 92 | 1011.5 |
| 20260507051535 | 45 | 219 | 5.0 | 11.0 | 0.00 | 0.00 | 0.00 | 91 | 1012.0 |
| 20260507050057 | 45 | 265 | 6.0 | 13.0 | 0.00 | 0.00 | 0.00 | 91 | 1012.5 |
| 20260507044536 | 46 | 205 | 5.0 | 13.0 | 0.00 | 0.00 | 0.00 | 91 | 1012.7 |
| 20260507043027 | 46 | 262 | 7.0 | 14.0 | 0.00 | 0.00 | 0.00 | 91 | 1013.0 |
| 20260507041526 | 45 | 285 | 6.0 | 11.0 | 0.00 | 0.00 | 0.00 | 92 | 1013.1 |
| 20260507040023 | 46 | 244 | 4.0 | 16.0 | 0.00 | 0.00 | 0.00 | 90 | 1013.4 |
| 20260507034522 | 45 | 271 | 4.0 | 9.0 | 0.00 | 0.00 | 0.00 | 91 | 1013.5 |
| 20260507033021 | 46 | 227 | 4.0 | 9.0 | 0.00 | 0.00 | 0.00 | 90 | 1013.6 |
| 20260507031511 | 47 | 225 | 4.0 | 10.0 | 0.00 | 0.00 | 0.00 | 90 | 1014.1 |
| 20260507030009 | 48 | 123 | 6.0 | 12.0 | 0.00 | 0.00 | 0.00 | 89 | 1014.2 |
| 20260507024506 | 48 | 219 | 7.0 | 13.0 | 0.00 | 0.00 | 0.00 | 88 | 1014.6 |
| 20260507023003 | 48 | 219 | 5.0 | 14.0 | 0.00 | 0.00 | 0.00 | 89 | 1015.1 |
| 20260507021613 | 47 | 242 | 5.0 | 14.0 | 0.00 | 0.00 | 0.00 | 90 | 1015.4 |
| 20260507020058 | 47 | 249 | 4.0 | 9.0 | 0.00 | 0.00 | 0.00 | 90 | 1015.6 |
| 20260507014559 | 47 | 252 | 4.0 | 11.0 | 0.00 | 0.00 | 0.00 | 91 | 1015.8 |
| 20260507013054 | 46 | 226 | 5.0 | 9.0 | 0.00 | 0.00 | 0.00 | 91 | 1016.0 |
| 20260507011557 | 46 | 242 | 6.0 | 12.0 | 0.00 | 0.00 | 0.00 | 91 | 1016.1 |
| 20260507010052 | 45 | 223 | 4.0 | 9.0 | 0.00 | 0.00 | 0.00 | 91 | 1016.3 |
| 20260507004551 | 46 | 169 | 3.0 | 9.0 | 0.00 | 0.00 | 0.00 | 90 | 1016.5 |
| 20260507003049 | 47 | 233 | 3.0 | 10.0 | 0.00 | 0.00 | 0.00 | 88 | 1016.5 |
| 20260507001548 | 48 | 235 | 7.0 | 13.0 | 0.00 | 0.00 | 0.00 | 89 | 1016.6 |
| 20260507000048 | 47 | 209 | 5.0 | 10.0 | 0.00 | 0.00 | 0.00 | 89 | 1016.6 |
| 20260506234604 | 48 | 224 | 5.0 | 11.0 | 0.00 | 0.00 | 0.00 | 88 | 1016.4 |
| 20260506233048 | 48 | 248 | 6.0 | 10.0 | 0.00 | 0.00 | 0.00 | 88 | 1016.3 |
| 20260506231547 | 48 | 243 | 5.0 | 11.0 | 0.00 | 0.00 | 0.00 | 88 | 1016.4 |
| 20260506230046 | 48 | 273 | 8.0 | 13.0 | 0.00 | 0.00 | 0.00 | 87 | 1016.5 |
| 20260506224548 | 49 | 219 | 7.0 | 11.0 | 0.00 | 0.00 | 0.00 | 86 | 1016.6 |
| 20260506223050 | 48 | 250 | 8.0 | 15.0 | 0.00 | 0.00 | 0.00 | 86 | 1016.7 |
| 20260506221544 | 48 | 230 | 8.0 | 13.0 | 0.00 | 0.00 | 0.00 | 86 | 1016.8 |
| 20260506220044 | 48 | 283 | 7.0 | 14.0 | 0.00 | 0.00 | 0.00 | 86 | 1016.6 |
| 20260506214544 | 47 | 207 | 6.0 | 13.0 | 0.00 | 0.00 | 0.00 | 86 | 1016.5 |
| 20260506213043 | 48 | 249 | 8.0 | 17.0 | 0.00 | 0.00 | 0.00 | 86 | 1016.6 |
| 20260506211542 | 48 | 233 | 7.0 | 16.0 | 0.00 | 0.00 | 0.00 | 85 | 1016.6 |
| 20260506210042 | 50 | 247 | 8.0 | 18.0 | 0.00 | 0.00 | 0.00 | 83 | 1016.2 |
| 20260506204551 | 50 | 203 | 10.0 | 18.0 | 0.00 | 0.00 | 0.00 | 84 | 1016.5 |
| 20260506203040 | 50 | 249 | 9.0 | 15.0 | 0.00 | 0.00 | 0.00 | 83 | 1016.8 |
| 20260506201540 | 52 | 186 | 9.0 | 18.0 | 0.00 | 0.00 | 0.00 | 82 | 1016.8 |
| 20260506200044 | 53 | 235 | 13.0 | 19.0 | 0.00 | 0.00 | 0.00 | 81 | 1016.9 |
| 20260506194547 | 53 | 270 | 11.0 | 22.0 | 0.00 | 0.00 | 0.00 | 81 | 1017.1 |
| 20260506193038 | 53 | 240 | 11.0 | 21.0 | 0.00 | 0.00 | 0.00 | 82 | 1017.1 |
| 20260506191537 | 52 | 224 | 14.0 | 21.0 | 0.00 | 0.00 | 0.00 | 82 | 1017.4 |
| 20260506190038 | 52 | 263 | 9.0 | 18.0 | 0.00 | 0.00 | 0.00 | 83 | 1017.4 |
| 20260506184536 | 52 | 217 | 10.0 | 22.0 | 0.00 | 0.00 | 0.00 | 83 | 1017.5 |
| 20260506183040 | 52 | 264 | 13.0 | 20.0 | 0.00 | 0.00 | 0.00 | 83 | 1017.8 |
| 20260506181536 | 53 | 219 | 10.0 | 20.0 | 0.00 | 0.00 | 0.00 | 82 | 1018.0 |
| 20260506180034 | 52 | 228 | 16.0 | 23.0 | 0.00 | 0.00 | 0.00 | 82 | 1018.1 |
| 20260506174533 | 52 | 246 | 13.0 | 23.0 | 0.00 | 0.00 | 0.00 | 83 | 1018.2 |
| 20260506173032 | 53 | 230 | 14.0 | 20.0 | 0.00 | 0.00 | 0.00 | 83 | 1018.0 |
| 20260506171518 | 52 | 236 | 14.0 | 22.0 | 0.00 | 0.00 | 0.00 | 83 | 1018.1 |
| 20260506170009 | 53 | 223 | 14.0 | 23.0 | 0.00 | 0.00 | 0.00 | 84 | 1017.9 |
| 20260506164508 | 52 | 238 | 14.0 | 25.0 | 0.00 | 0.00 | 0.00 | 85 | 1018.1 |
| 20260506163007 | 52 | 237 | 13.0 | 23.0 | 0.00 | 0.00 | 0.00 | 84 | 1018.0 |
| 20260506161506 | 52 | 237 | 16.0 | 26.0 | 0.00 | 0.00 | 0.00 | 85 | 1018.2 |
| 20260506160003 | 53 | 245 | 13.0 | 24.0 | 0.00 | 0.00 | 0.00 | 85 | 1018.2 |
| 20260506154601 | 52 | 220 | 13.0 | 24.0 | 0.00 | 0.00 | 0.00 | 86 | 1018.4 |
| 20260506153100 | 52 | 234 | 14.0 | 26.0 | 0.00 | 0.00 | 0.00 | 86 | 1018.4 |
| 20260506151609 | 51 | 226 | 13.0 | 22.0 | 0.00 | 0.00 | 0.00 | 87 | 1018.7 |
| 20260506144655 | 52 | 264 | 11.0 | 23.0 | 0.00 | 0.00 | 0.00 | 88 | 1018.6 |
| 20260506143057 | 50 | 239 | 11.0 | 21.0 | 0.00 | 0.00 | 0.00 | 89 | 1018.7 |
| 20260506141553 | 50 | 259 | 14.0 | 20.0 | 0.00 | 0.00 | 0.00 | 89 | 1018.7 |
| 20260506140103 | 51 | 204 | 12.0 | 21.0 | 0.00 | 0.00 | 0.00 | 88 | 1018.7 |
| 20260506134551 | 50 | 238 | 13.0 | 21.0 | 0.00 | 0.00 | 0.00 | 89 | 1018.6 |
| 20260506133050 | 49 | 235 | 11.0 | 19.0 | 0.00 | 0.00 | 0.00 | 90 | 1018.4 |
| 20260506131547 | 50 | 248 | 9.0 | 17.0 | 0.00 | 0.00 | 0.00 | 89 | 1018.3 |
| 20260506130058 | 51 | 214 | 13.0 | 21.0 | 0.00 | 0.00 | 0.00 | 89 | 1018.3 |
| 20260506124545 | 52 | 266 | 11.0 | 22.0 | 0.00 | 0.00 | 0.00 | 88 | 1018.3 |
| 20260506123042 | 52 | 255 | 11.0 | 20.0 | 0.00 | 0.00 | 0.00 | 88 | 1018.2 |
| 20260506121540 | 52 | 226 | 13.0 | 21.0 | 0.00 | 0.00 | 0.00 | 89 | 1018.3 |
| 20260506120038 | 51 | 176 | 10.0 | 19.0 | 0.00 | 0.00 | 0.00 | 90 | 1018.1 |
| 20260506114540 | 50 | 226 | 13.0 | 20.0 | 0.00 | 0.00 | 0.00 | 90 | 1018.0 |
| 20260506113030 | 49 | 234 | 10.0 | 23.0 | 0.00 | 0.00 | 0.00 | 91 | 1017.9 |
| 20260506111526 | 49 | 237 | 10.0 | 24.0 | 0.00 | 0.00 | 0.00 | 91 | 1018.0 |
| 20260506110024 | 49 | 249 | 11.0 | 21.0 | 0.00 | 0.00 | 0.00 | 92 | 1017.9 |
| 20260506104520 | 48 | 254 | 10.0 | 24.0 | 0.00 | 0.00 | 0.00 | 93 | 1017.8 |
| 20260506103018 | 47 | 269 | 13.0 | 20.0 | 0.00 | 0.00 | 0.00 | 93 | 1017.7 |
| 20260506101527 | 47 | 232 | 10.0 | 19.0 | 0.00 | 0.00 | 0.00 | 94 | 1017.7 |
| 20260506100013 | 46 | 286 | 12.0 | 24.0 | 0.00 | 0.00 | 0.00 | 94 | 1017.6 |
| 20260506094516 | 46 | 255 | 12.0 | 21.0 | 0.00 | 0.00 | 0.00 | 94 | 1017.4 |
| 20260506093010 | 45 | 235 | 10.0 | 18.0 | 0.00 | 0.00 | 0.00 | 94 | 1017.2 |
| 20260506091508 | 45 | 229 | 11.0 | 20.0 | 0.00 | 0.00 | 0.00 | 94 | 1017.1 |
| 20260506090009 | 46 | 249 | 11.0 | 22.0 | 0.00 | 0.00 | 0.00 | 94 | 1016.9 |
| 20260506084515 | 46 | 286 | 10.0 | 24.0 | 0.00 | 0.00 | 0.00 | 94 | 1016.7 |
| 20260506083002 | 46 | 257 | 12.0 | 21.0 | 0.00 | 0.00 | 0.00 | 94 | 1016.7 |
| 20260506081502 | 46 | 248 | 10.0 | 19.0 | 0.00 | 0.00 | 0.00 | 94 | 1016.6 |
| 20260506073104 | 46 | 257 | 11.0 | 20.0 | 0.00 | 0.00 | 0.00 | 94 | 1016.7 |
| 20260506071609 | 46 | 246 | 9.0 | 18.0 | 0.00 | 0.00 | 0.00 | 94 | 1016.8 |